Location: Unspecified
(43.4680°N, 87.1740°E)
Time: 21:38:48
(UTC+00:00)

IRAS Rocket - Pass Details

Date: 17 April 2021
Orbit: 848 x 877 km, 100.1° (Epoch: 12 May)

Event Time Altitude Azimuth Distance (km) Brightness Sun altitude
Rises 22:20:53 0° 175° (S) 3,398 7.1 -11.5°
Reaches altitude 10° 22:23:16 10° 179° (S) 2,469 6.4 -11.1°
Maximum altitude 22:28:38 57° 257° (WSW) 1,004 4.3 -10.3°
Drops below altitude 10° 22:34:06 10° 336° (NNW) 2,502 6.7 -9.4°
Sets 22:36:32 0° 341° (NNW) 3,447 7.4 -9.0°
